Location: Newark
(27.5000°N, 79.4000°E)
Time: 13:01:37
(UTC+00:00)

N. Korean satellite - Visible Passes

Search period start: 10 December 2019 00:00
Search period end: 20 December 2019 00:00
Orbit: 456 x 506 km, 97.2° (Epoch: 09 December)

Date Brightness Start Highest point End Pass type
(mag) Time Alt. Az. Time Alt. Az. Time Alt. Az.
10 Dec 6.5 00:23:54 10° NNE 00:27:24 82° E 00:30:50 10° S visible
10 Dec 8.8 12:25:22 10° SSW 12:28:41 32° W 12:32:02 10° NW visible
10 Dec 8.5 23:58:51 10° NE 00:01:57 30° E 00:05:00 10° SSE visible
11 Dec 9.9 23:34:47 10° ENE 23:36:26 13° E 23:38:03 10° ESE visible
13 Dec 6.6 00:41:03 10° N 00:44:25 50° WNW 00:47:44 10° SSW visible
13 Dec 9.8 12:43:12 10° SW 12:45:49 18° W 12:48:25 10° NW visible
14 Dec 7.1 00:15:35 10° NNE 00:19:01 58° E 00:22:23 10° S visible
14 Dec 8.2 12:16:49 10° S 12:20:20 42° W 12:23:51 10° NNW visible
14 Dec 9.1 23:50:45 10° NE 23:53:32 23° E 23:56:17 10° SSE visible
16 Dec 10.4 13:02:28 10° WSW 13:02:57 10° W 13:03:26 10° W visible
17 Dec 6.3 00:32:36 10° N 00:36:01 70° WNW 00:39:24 10° SSW visible
17 Dec 9.4 12:34:25 10° SSW 12:37:25 23° W 12:40:25 10° NW visible
18 Dec 7.8 00:07:18 10° NNE 00:10:36 42° E 00:13:50 10° S visible
18 Dec 9.5 23:42:45 10° NE 23:45:05 17° E 23:47:25 10° SE visible
